Torna al catalogo

OPS 4682 DEB

AttivoPO
NORAD 18534·DEBRIS·🇺🇸 United States

Lanciato Apr 3, 1965 da Vandenberg Space Force Base

Loading…

Prossimi Passaggi (prossime 24 ore)

TLE

AggiornatoSource: Space-Track

Epoca: Sep 14, 2026, 15:05 UTC

1 18534U 65027AE  26257.62903024  .00000060  00000-0  18350-3 0  9995
2 18534  90.2819  26.2296 0027953 230.3993 143.6830 12.96223816852587

Traccia OPS 4682 DEB in tempo reale con AllMySat

Download on the App Store